| time (UTC) | temp C | wind direction | speed KPH | gust KPH | rain 1hr cm | rain 24hr cm | rain mn cm | humidity % | barometer mb |
| 20260505052503 | 8 | 239 | 8.0 | 11.3 | 0.00 | 0.00 | 0.00 | 32 | 1012.3 |
| 20260505052003 | 9 | 237 | 9.7 | 16.1 | 0.00 | 0.00 | 0.00 | 32 | 1012.3 |
| 20260505051503 | 9 | 237 | 12.9 | 17.7 | 0.00 | 0.00 | 0.00 | 32 | 1012.3 |
| 20260505051003 | 9 | 234 | 14.5 | 19.3 | 0.00 | 0.00 | 0.00 | 32 | 1012.1 |
| 20260505050503 | 10 | 234 | 11.3 | 20.9 | 0.00 | 0.00 | 0.00 | 31 | 1012.2 |
| 20260505050217 | 9 | 235 | 8.0 | 20.9 | 0.00 | 0.00 | 0.00 | 32 | 1012.1 |
| 20260505041504 | 6 | 60 | 3.2 | 4.8 | 0.00 | 0.00 | 0.00 | 44 | 1012.0 |
| 20260505041003 | 6 | 60 | 3.2 | 6.4 | 0.00 | 0.00 | 0.00 | 44 | 1012.0 |
| 20260505040503 | 6 | 60 | 3.2 | 6.4 | 0.00 | 0.00 | 0.00 | 43 | 1011.9 |
| 20260505040004 | 6 | 60 | 3.2 | 6.4 | 0.00 | 0.00 | 0.00 | 43 | 1011.9 |
| 20260505035503 | 7 | 60 | 3.2 | 4.8 | 0.00 | 0.00 | 0.00 | 43 | 1011.8 |
| 20260505035003 | 7 | 60 | 4.8 | 6.4 | 0.00 | 0.00 | 0.00 | 43 | 1011.8 |
| 20260505034503 | 7 | 60 | 3.2 | 6.4 | 0.00 | 0.00 | 0.00 | 42 | 1011.7 |
| 20260505034221 | 6 | 60 | 4.8 | 6.4 | 0.00 | 0.00 | 0.00 | 43 | 1011.8 |
| 20260505033503 | 6 | 60 | 4.8 | 6.4 | 0.00 | 0.00 | 0.00 | 44 | 1011.6 |
| 20260505033003 | 6 | 62 | 3.2 | 6.4 | 0.00 | 0.00 | 0.00 | 44 | 1011.6 |
| 20260505032503 | 7 | 64 | 3.2 | 6.4 | 0.00 | 0.00 | 0.00 | 44 | 1011.5 |
| 20260505032217 | 7 | 50 | 3.2 | 6.4 | 0.00 | 0.00 | 0.00 | 43 | 1011.4 |
| 20260505031503 | 8 | 338 | 3.2 | 6.4 | 0.00 | 0.00 | 0.00 | 39 | 1011.4 |
| 20260505031003 | 10 | 331 | 4.8 | 6.4 | 0.00 | 0.00 | 0.00 | 35 | 1011.3 |
| 20260505030503 | 10 | 331 | 6.4 | 6.4 | 0.00 | 0.00 | 0.00 | 34 | 1011.3 |
| 20260505030003 | 10 | 331 | 6.4 | 8.0 | 0.00 | 0.00 | 0.00 | 34 | 1011.3 |
| 20260505025503 | 10 | 331 | 6.4 | 8.0 | 0.00 | 0.00 | 0.00 | 34 | 1011.4 |
| 20260505025003 | 10 | 331 | 6.4 | 8.0 | 0.00 | 0.00 | 0.00 | 34 | 1011.4 |
| 20260505024503 | 10 | 331 | 6.4 | 8.0 | 0.00 | 0.00 | 0.00 | 34 | 1011.4 |
| 20260505024216 | 10 | 331 | 6.4 | 8.0 | 0.00 | 0.00 | 0.00 | 34 | 1011.3 |
| 20260505023718 | 10 | 331 | 6.4 | 8.0 | 0.00 | 0.00 | 0.00 | 33 | 1011.3 |
| 20260505023003 | 10 | 331 | 6.4 | 8.0 | 0.00 | 0.00 | 0.00 | 33 | 1011.3 |
| 20260505022503 | 11 | 314 | 6.4 | 12.9 | 0.00 | 0.00 | 0.00 | 33 | 1011.3 |
| 20260505022003 | 11 | 287 | 6.4 | 12.9 | 0.00 | 0.00 | 0.00 | 32 | 1011.3 |
| 20260505021717 | 11 | 277 | 6.4 | 9.7 | 0.00 | 0.00 | 0.00 | 31 | 1011.2 |
| 20260505021003 | 12 | 275 | 4.8 | 9.7 | 0.00 | 0.00 | 0.00 | 30 | 1011.1 |
| 20260505020717 | 12 | 275 | 6.4 | 9.7 | 0.00 | 0.00 | 0.00 | 30 | 1011.2 |
| 20260505020003 | 12 | 270 | 8.0 | 12.9 | 0.00 | 0.00 | 0.00 | 30 | 1011.2 |
| 20260505015503 | 12 | 269 | 11.3 | 16.1 | 0.00 | 0.00 | 0.00 | 29 | 1011.2 |
| 20260505015003 | 12 | 270 | 12.9 | 17.7 | 0.00 | 0.00 | 0.00 | 29 | 1010.9 |
| 20260505014503 | 12 | 265 | 12.9 | 19.3 | 0.00 | 0.00 | 0.00 | 29 | 1011.2 |
| 20260505014003 | 12 | 259 | 14.5 | 19.3 | 0.00 | 0.00 | 0.00 | 29 | 1011.3 |
| 20260505013503 | 12 | 257 | 14.5 | 19.3 | 0.00 | 0.00 | 0.00 | 29 | 1011.2 |
| 20260505013003 | 13 | 257 | 14.5 | 19.3 | 0.00 | 0.00 | 0.00 | 29 | 1011.2 |
| 20260505012503 | 13 | 256 | 12.9 | 20.9 | 0.00 | 0.00 | 0.00 | 28 | 1011.1 |
| 20260505012003 | 13 | 251 | 12.9 | 20.9 | 0.00 | 0.00 | 0.00 | 28 | 1011.2 |
| 20260505011503 | 13 | 250 | 14.5 | 19.3 | 0.00 | 0.00 | 0.00 | 29 | 1011.2 |
| 20260505011003 | 13 | 252 | 14.5 | 20.9 | 0.00 | 0.00 | 0.00 | 28 | 1011.3 |
| 20260505010503 | 13 | 254 | 14.5 | 22.5 | 0.00 | 0.00 | 0.00 | 28 | 1011.3 |
| 20260505010003 | 13 | 259 | 14.5 | 22.5 | 0.00 | 0.00 | 0.00 | 28 | 1011.4 |
| 20260505005503 | 13 | 268 | 16.1 | 24.1 | 0.00 | 0.00 | 0.00 | 28 | 1011.4 |
| 20260505005003 | 13 | 272 | 16.1 | 24.1 | 0.00 | 0.00 | 0.00 | 27 | 1011.3 |
| 20260505004503 | 13 | 270 | 14.5 | 20.9 | 0.00 | 0.00 | 0.00 | 27 | 1011.3 |
| 20260505004003 | 13 | 260 | 14.5 | 19.3 | 0.00 | 0.00 | 0.00 | 27 | 1011.3 |
| 20260505003503 | 13 | 260 | 16.1 | 22.5 | 0.00 | 0.00 | 0.00 | 26 | 1011.3 |
| 20260505003218 | 13 | 268 | 16.1 | 22.5 | 0.00 | 0.00 | 0.00 | 26 | 1011.4 |
| 20260505002503 | 13 | 264 | 16.1 | 22.5 | 0.00 | 0.00 | 0.00 | 26 | 1011.5 |
| 20260505002003 | 14 | 255 | 16.1 | 22.5 | 0.00 | 0.00 | 0.00 | 25 | 1011.6 |
| 20260505001503 | 14 | 251 | 16.1 | 22.5 | 0.00 | 0.00 | 0.00 | 25 | 1011.6 |
| 20260505001003 | 14 | 261 | 16.1 | 22.5 | 0.00 | 0.00 | 0.00 | 25 | 1011.5 |
| 20260505000503 | 14 | 260 | 17.7 | 25.7 | 0.00 | 0.00 | 0.00 | 25 | 1011.6 |
| 20260505000003 | 14 | 249 | 19.3 | 29.0 | 0.00 | 0.00 | 0.00 | 25 | 1011.7 |
| 20260504235503 | 14 | 248 | 19.3 | 29.0 | 0.00 | 0.00 | 0.00 | 25 | 1011.8 |
| 20260504235003 | 14 | 256 | 19.3 | 29.0 | 0.00 | 0.00 | 0.00 | 25 | 1011.7 |
| 20260504234503 | 14 | 261 | 19.3 | 27.4 | 0.00 | 0.00 | 0.00 | 24 | 1011.9 |
| 20260504234003 | 14 | 258 | 19.3 | 29.0 | 0.00 | 0.00 | 0.00 | 24 | 1012.0 |
| 20260504233716 | 14 | 255 | 20.9 | 37.0 | 0.00 | 0.00 | 0.00 | 24 | 1012.0 |
| 20260504233003 | 14 | 256 | 22.5 | 37.0 | 0.00 | 0.00 | 0.00 | 24 | 1012.0 |
| 20260504232503 | 14 | 264 | 20.9 | 38.6 | 0.00 | 0.00 | 0.00 | 23 | 1012.0 |
| 20260504232004 | 14 | 260 | 22.5 | 38.6 | 0.00 | 0.00 | 0.00 | 23 | 1012.1 |
| 20260504231503 | 15 | 258 | 24.1 | 33.8 | 0.00 | 0.00 | 0.00 | 22 | 1012.1 |
| 20260504231003 | 15 | 266 | 24.1 | 32.2 | 0.00 | 0.00 | 0.00 | 21 | 1012.2 |
| 20260504230503 | 15 | 275 | 24.1 | 35.4 | 0.00 | 0.00 | 0.00 | 22 | 1012.2 |
| 20260504230003 | 14 | 274 | 24.1 | 35.4 | 0.00 | 0.00 | 0.00 | 22 | 1012.2 |
| 20260504225503 | 15 | 262 | 22.5 | 32.2 | 0.00 | 0.00 | 0.00 | 22 | 1012.2 |
| 20260504225003 | 14 | 252 | 22.5 | 30.6 | 0.00 | 0.00 | 0.00 | 23 | 1012.2 |
| 20260504224718 | 14 | 252 | 24.1 | 30.6 | 0.00 | 0.00 | 0.00 | 25 | 1012.2 |
| 20260504224217 | 14 | 262 | 24.1 | 37.0 | 0.00 | 0.00 | 0.00 | 25 | 1012.2 |
| 20260504223503 | 14 | 252 | 24.1 | 33.8 | 0.00 | 0.00 | 0.00 | 23 | 1012.1 |
| 20260504223217 | 14 | 241 | 22.5 | 33.8 | 0.00 | 0.00 | 0.00 | 23 | 1012.1 |
| 20260504222503 | 14 | 250 | 20.9 | 35.4 | 0.00 | 0.00 | 0.00 | 23 | 1012.1 |
| 20260504222003 | 14 | 251 | 24.1 | 33.8 | 0.00 | 0.00 | 0.00 | 26 | 1012.2 |
| 20260504221503 | 14 | 248 | 25.7 | 40.2 | 0.00 | 0.00 | 0.00 | 25 | 1012.4 |
| 20260504221003 | 14 | 237 | 25.7 | 40.2 | 0.00 | 0.00 | 0.00 | 26 | 1012.4 |
| 20260504220503 | 14 | 232 | 24.1 | 35.4 | 0.00 | 0.00 | 0.00 | 23 | 1012.4 |
| 20260504220003 | 14 | 242 | 22.5 | 37.0 | 0.00 | 0.00 | 0.00 | 26 | 1012.3 |
| 20260504215503 | 14 | 252 | 20.9 | 37.0 | 0.00 | 0.00 | 0.00 | 28 | 1012.4 |
| 20260504215003 | 14 | 261 | 16.1 | 32.2 | 0.00 | 0.00 | 0.00 | 30 | 1012.5 |
| 20260504214718 | 14 | 267 | 17.7 | 32.2 | 0.00 | 0.00 | 0.00 | 29 | 1012.5 |
| 20260504214003 | 14 | 269 | 24.1 | 32.2 | 0.00 | 0.00 | 0.00 | 31 | 1012.5 |
| 20260504213503 | 14 | 247 | 25.7 | 40.2 | 0.00 | 0.00 | 0.00 | 31 | 1012.6 |
| 20260504213003 | 14 | 235 | 25.7 | 40.2 | 0.00 | 0.00 | 0.00 | 29 | 1012.8 |
| 20260504212718 | 15 | 235 | 24.1 | 40.2 | 0.00 | 0.00 | 0.00 | 28 | 1012.8 |
| 20260504212003 | 14 | 228 | 19.3 | 35.4 | 0.00 | 0.00 | 0.00 | 32 | 1012.9 |
| 20260504211503 | 14 | 221 | 19.3 | 33.8 | 0.00 | 0.00 | 0.00 | 34 | 1012.9 |
| 20260504211003 | 14 | 236 | 20.9 | 33.8 | 0.00 | 0.00 | 0.00 | 33 | 1013.1 |
| 20260504210503 | 13 | 246 | 20.9 | 33.8 | 0.00 | 0.00 | 0.00 | 34 | 1013.0 |
| 20260504210003 | 14 | 230 | 19.3 | 33.8 | 0.00 | 0.00 | 0.00 | 35 | 1013.1 |
| 20260504205503 | 13 | 231 | 19.3 | 32.2 | 0.00 | 0.00 | 0.00 | 34 | 1013.3 |
| 20260504205003 | 14 | 233 | 20.9 | 32.2 | 0.00 | 0.00 | 0.00 | 34 | 1013.1 |
| 20260504204503 | 13 | 230 | 19.3 | 33.8 | 0.00 | 0.00 | 0.00 | 34 | 1013.4 |
| 20260504204003 | 13 | 240 | 19.3 | 33.8 | 0.00 | 0.00 | 0.00 | 35 | 1013.5 |
| 20260504203503 | 13 | 236 | 22.5 | 35.4 | 0.00 | 0.00 | 0.00 | 37 | 1013.6 |
| 20260504203003 | 13 | 238 | 19.3 | 35.4 | 0.00 | 0.00 | 0.00 | 36 | 1013.5 |
| 20260504202503 | 13 | 250 | 17.7 | 30.6 | 0.00 | 0.00 | 0.00 | 38 | 1013.4 |
| 20260504202003 | 13 | 241 | 20.9 | 32.2 | 0.00 | 0.00 | 0.00 | 37 | 1013.6 |
| 20260504201503 | 13 | 242 | 20.9 | 32.2 | 0.00 | 0.00 | 0.00 | 37 | 1013.8 |
| 20260504201003 | 13 | 257 | 19.3 | 29.0 | 0.00 | 0.00 | 0.00 | 38 | 1013.9 |
| 20260504200503 | 13 | 257 | 17.7 | 29.0 | 0.00 | 0.00 | 0.00 | 37 | 1013.8 |
| 20260504200218 | 13 | 255 | 17.7 | 29.0 | 0.00 | 0.00 | 0.00 | 37 | 1013.8 |
| 20260504195503 | 13 | 238 | 20.9 | 30.6 | 0.00 | 0.00 | 0.00 | 37 | 1014.0 |
| 20260504195003 | 13 | 240 | 20.9 | 30.6 | 0.00 | 0.00 | 0.00 | 38 | 1014.0 |
| 20260504194503 | 13 | 259 | 19.3 | 29.0 | 0.00 | 0.00 | 0.00 | 39 | 1014.0 |
| 20260504194003 | 13 | 263 | 17.7 | 29.0 | 0.00 | 0.00 | 0.00 | 38 | 1013.9 |
| 20260504193503 | 13 | 261 | 17.7 | 29.0 | 0.00 | 0.00 | 0.00 | 39 | 1013.9 |
| 20260504193218 | 13 | 262 | 17.7 | 29.0 | 0.00 | 0.00 | 0.00 | 39 | 1013.9 |
| 20260504192717 | 13 | 256 | 17.7 | 29.0 | 0.00 | 0.00 | 0.00 | 40 | 1014.0 |
| 20260504192003 | 13 | 255 | 17.7 | 29.0 | 0.00 | 0.00 | 0.00 | 40 | 1013.9 |
| 20260504191503 | 13 | 261 | 17.7 | 29.0 | 0.00 | 0.00 | 0.00 | 39 | 1013.9 |
| 20260504191003 | 13 | 242 | 19.3 | 30.6 | 0.00 | 0.00 | 0.00 | 40 | 1014.1 |
| 20260504190717 | 13 | 234 | 19.3 | 30.6 | 0.00 | 0.00 | 0.00 | 40 | 1014.1 |
| 20260504190218 | 13 | 232 | 20.9 | 32.2 | 0.00 | 0.00 | 0.00 | 40 | 1014.2 |
| 20260504185717 | 12 | 225 | 19.3 | 32.2 | 0.00 | 0.00 | 0.00 | 40 | 1014.1 |
| 20260504185003 | 12 | 224 | 19.3 | 30.6 | 0.00 | 0.00 | 0.00 | 41 | 1014.2 |
| 20260504184503 | 13 | 237 | 17.7 | 30.6 | 0.00 | 0.00 | 0.00 | 40 | 1014.2 |
| 20260504184003 | 12 | 241 | 19.3 | 30.6 | 0.00 | 0.00 | 0.00 | 41 | 1014.3 |
| 20260504183717 | 12 | 237 | 20.9 | 30.6 | 0.00 | 0.00 | 0.00 | 41 | 1014.4 |
| 20260504183003 | 12 | 244 | 19.3 | 29.0 | 0.00 | 0.00 | 0.00 | 42 | 1014.5 |
| 20260504182717 | 12 | 249 | 17.7 | 29.0 | 0.00 | 0.00 | 0.00 | 41 | 1014.5 |
| 20260504182003 | 12 | 253 | 19.3 | 29.0 | 0.00 | 0.00 | 0.00 | 43 | 1014.6 |
| 20260504181503 | 12 | 240 | 20.9 | 29.0 | 0.00 | 0.00 | 0.00 | 41 | 1014.8 |
| 20260504181003 | 12 | 238 | 17.7 | 29.0 | 0.00 | 0.00 | 0.00 | 42 | 1014.7 |
| 20260504180503 | 12 | 251 | 16.1 | 27.4 | 0.00 | 0.00 | 0.00 | 41 | 1014.7 |
| 20260504180003 | 12 | 250 | 16.1 | 27.4 | 0.00 | 0.00 | 0.00 | 43 | 1014.8 |
| 20260504175503 | 12 | 228 | 14.5 | 27.4 | 0.00 | 0.00 | 0.00 | 43 | 1014.8 |
| 20260504175003 | 11 | 211 | 14.5 | 25.7 | 0.00 | 0.00 | 0.00 | 46 | 1014.8 |
| 20260504174503 | 12 | 222 | 14.5 | 27.4 | 0.00 | 0.00 | 0.00 | 45 | 1014.8 |
| 20260504174003 | 11 | 242 | 14.5 | 27.4 | 0.00 | 0.00 | 0.00 | 49 | 1014.9 |
| 20260504173503 | 11 | 246 | 14.5 | 27.4 | 0.00 | 0.00 | 0.00 | 50 | 1014.8 |
| 20260504173003 | 11 | 244 | 14.5 | 27.4 | 0.00 | 0.00 | 0.00 | 49 | 1015.0 |
| 20260504172503 | 11 | 236 | 16.1 | 24.1 | 0.00 | 0.00 | 0.00 | 51 | 1015.1 |
| 20260504172003 | 11 | 228 | 16.1 | 24.1 | 0.00 | 0.00 | 0.00 | 50 | 1015.0 |
| 20260504171503 | 11 | 236 | 12.9 | 22.5 | 0.00 | 0.00 | 0.00 | 50 | 1015.0 |
| 20260504171003 | 11 | 241 | 11.3 | 22.5 | 0.00 | 0.00 | 0.00 | 50 | 1015.0 |
| 20260504170718 | 11 | 243 | 11.3 | 22.5 | 0.00 | 0.00 | 0.00 | 51 | 1015.0 |
| 20260504151003 | 10 | 45 | 8.0 | 14.5 | 0.00 | 0.00 | 0.00 | 61 | 1015.1 |
| 20260504150503 | 10 | 45 | 9.7 | 16.1 | 0.00 | 0.00 | 0.00 | 62 | 1015.1 |
| 20260504141003 | 8 | 59 | 11.3 | 16.1 | 0.00 | 0.00 | 0.00 | 67 | 1015.3 |
| 20260504140717 | 8 | 56 | 11.3 | 16.1 | 0.00 | 0.00 | 0.00 | 68 | 1015.3 |
| 20260504130717 | 6 | 47 | 9.7 | 16.1 | 0.00 | 0.00 | 0.00 | 73 | 1014.6 |
| 20260504110503 | 6 | 46 | 11.3 | 16.1 | 0.00 | 0.00 | 0.00 | 74 | 1014.4 |
| 20260504082003 | 8 | 62 | 19.3 | 24.1 | 0.00 | 0.00 | 0.00 | 65 | 1014.2 |
| 20260504081503 | 8 | 65 | 19.3 | 25.7 | 0.00 | 0.00 | 0.00 | 64 | 1014.2 |
| 20260504081003 | 8 | 66 | 14.5 | 25.7 | 0.00 | 0.00 | 0.00 | 64 | 1014.3 |
| 20260504080717 | 8 | 70 | 12.9 | 22.5 | 0.00 | 0.00 | 0.00 | 64 | 1014.4 |